Weather Roundup
Issued by NWS

Home | Current Version | Previous Version | Text Only | Print | Product List | Glossary On
Versions: 1 2 3 4 5 6 7 8 9 10 11 12 13 14 15 16 17 18 19 20 21 22 23 24 25 26 27 28 29 30 31 32 33 34 35 36 37 38 39 40 41 42 43 44 45 46 47 48 49 50
703
NZUS93 KARX 281710
HRRWXR

CURRENT HOURLY OBSERVATIONS ACROSS
MUCH OF THE UPPER MISSISSIPPI VALLEY
NATIONAL WEATHER SERVICE LA CROSSE WI
1200 PM CDT THU JUL 28 2016


...SOUTHEAST MINNESOTA...


CITY           SKY/WX    TMP DP  RH WIND       PRES   REMARKS
ROCHESTER      LGT RAIN  68  66  93 N10       30.01S FOG
ROCHESTER/MAYO CLOUDY    66  66 100 NW5       30.00F
WINONA         CLOUDY    68  64  88 NE6       29.98S
AUSTIN         CLOUDY    68  63  83 N8        30.00F
ALBERT LEA     CLOUDY    70  64  83 N9        30.01F
DODGE CENTER   CLOUDY    66  66 100 N10       30.01F
PRESTON        CLOUDY    68  63  86 N13       29.99S
OWATONNA       PTSUNNY   70  63  78 N10       30.02S
FARIBAULT      CLOUDY    70  64  83 N7        30.02F
$$

...ELSEWHERE IN MINNESOTA...


CITY           SKY/WX    TMP DP  RH WIND       PRES   REMARKS
MINNEAPOLIS    CLOUDY    68  62  81 N9        30.04S
INTNL FALLS    SUNNY     71  52  50 N8        30.12R
DULUTH         MOSUNNY   72  54  53 E12       30.11R
RED WING       CLOUDY    72  66  83 NE7       30.00F
REDWOOD FALLS  CLOUDY    69  61  75 NE7       30.06S
MANKATO        CLOUDY    68  61  77 N12       30.04S
WORTHINGTON    CLOUDY    68  62  81 N10       30.07F
FAIRMONT       CLOUDY    68  61  77 NW8       30.04S
$$

...SOUTHWEST WISCONSIN...


CITY           SKY/WX    TMP DP  RH WIND       PRES   REMARKS
LA CROSSE      LGT RAIN  69  66  90 N8        29.94S
PRAIRIE DU CHI CLOUDY    72  67  85 NW8       29.91F
BOSCOBEL       CLOUDY    76  69  79 E6        29.91F
LONE ROCK      CLOUDY    75  69  81 NE8       29.92F
PLATTEVILLE    PTSUNNY   80  72  77 SE5       29.90F
FORT MC COY    CLOUDY    66  64  94 NE7       29.97R
MAUSTON-NEW LI CLOUDY    69  65  86 E5        29.96R
VIROQUA        CLOUDY    69  69 100 E3        29.95R
WIS DELLS      CLOUDY    70  64  83 E7        29.95S
$$

...ELSEWHERE IN WISCONSIN...


CITY           SKY/WX    TMP DP  RH WIND       PRES   REMARKS
MILWAUKEE      PTSUNNY   77  69  76 NE12      29.93S
MADISON        CLOUDY    75  68  78 E8        29.92F
GREEN BAY      CLOUDY    68  65  90 NE14      30.00R
EAU CLAIRE     LGT RAIN  66  64  93 NE7       30.01S FOG
BLACK RVR FLS  DRIZZLE   64  64 100 NE7       29.98S
MEDFORD        LGT RAIN  61  61 100 NE9G16    30.04R
WAUSAU         CLOUDY    62  59  90 NE7       30.01S
WIS RAPIDS     CLOUDY    65  59  81 E8        30.01R
MARSHFIELD     LGT RAIN  63  60  90 E13       30.01R
RICE LAKE      CLOUDY    70  58  67 N7        30.06S
$$

...NORTHEAST IOWA...


CITY           SKY/WX    TMP DP  RH WIND       PRES   REMARKS
WATERLOO       CLOUDY    74  65  73 NW14      29.95F
DUBUQUE        CLOUDY    76  70  82 W12       29.93R
DECORAH        CLOUDY    70  66  88 NW8G15    29.96S
MASON CITY     LGT RAIN  69  64  84 N12       30.02F
CHARLES CITY   PTSUNNY   70  68  94 N9        29.99F
OELWEIN        CLOUDY    72  68  88 N12G18    29.97R
$$

...ELSEWHERE IN IOWA...


CITY           SKY/WX    TMP DP  RH WIND       PRES   REMARKS
DES MOINES     MOSUNNY   77  65  66 N12       29.98F
IOWA CITY      CLOUDY    75  66  73 NW12      29.96R
FORT DODGE     CLOUDY    66  63  88 N7        30.03F
MARSHALLTOWN   PTSUNNY   75  66  73 NW12      29.98F
CEDAR RAPIDS   PTSUNNY   75  68  78 NW12      29.94F
$$

...NORTHERN ILLINOIS...


CITY           SKY/WX    TMP DP  RH WIND       PRES   REMARKS
CHICAGO-OHARE  CLOUDY    82  69  64 NE8       29.89S
CHICAGO-MIDWAY PTSUNNY   76  66  71 E10       29.88F
MOLINE         PTSUNNY   85  69  58 W7        29.89F
ROCKFORD       TSTM      84  70  62 E6        29.89F VSB 1
PEORIA         MOSUNNY   86  74  67 CALM      29.89S HX  94
$$

NOTE: "FAIR" INDICATES FEW OR NO CLOUDS BELOW 12,000 FEET WITH NO
SIGNIFICANT WEATHER AND/OR OBSTRUCTIONS TO VISIBILITY. WIND
SPEEDS ARE IN MILES-PER-HOUR.




USA.gov is the U.S. government's official web portal to all federal, state and local government web resources and services.